Back to catalog

STARLINK-35920

AliveCommunicationsVLEO
NORAD 66623·PAYLOAD·🇺🇸 United States

Launched Nov 23, 2025 from Vandenberg Space Force Base

Loading…

Next Passes (next 24 hours)

TLE

FreshSource: CelesTrak SupGP

Epoch: Sep 14, 2026, 15:45 UTC

1 66623C 25271G   26257.65673611  .00032148  00000+0  95024-3 0  2574
2 66623  53.1601 337.2565 0001232  67.0179  95.8318 15.34360290    18

Track STARLINK-35920 in real time with AllMySat

Download on the App Store